Regional Weather Roundup
Issued by NWS

Home | Current Version | Previous Version | Text Only | Print | Product List | Glossary Off
Versions: 1 2 3 4 5 6 7 8 9 10 11 12 13 14 15 16 17 18 19 20 21 22 23 24 25 26 27 28 29 30 31 32 33 34 35 36 37 38 39 40 41 42 43 44 45 46 47 48 49 50

319
ASUS43 KTOP 202008
RWRKS

WEATHER ROUNDUP FOR KANSAS
NATIONAL WEATHER SERVICE GOODLAND KS
200 PM CST SAT JAN 20 2018

NOTE:  "FAIR" INDICATES FEW OR NO CLOUDS BELOW 12,000 FEET WITH NO
SIGNIFICANT WEATHER AND/OR OBSTRUCTIONS TO VISIBILITY.

KSZ001>006-013>018-027>032-041>047-202100-
NORTHWEST KANSAS

CITY           SKY/WX    TMP DP  RH WIND       PRES   REMARKS
GOODLAND       SUNNY     50  28  42 N8        29.72F
HAYS           SUNNY     50  22  33 VRB3      29.72F
HILL CITY      SUNNY     50  27  40 N6        29.73F
RUSSELL        SUNNY     56  38  50 S8        29.70F
$$

KSZ061>065-074>080-084>089-202100-
SOUTHWEST KANSAS

CITY           SKY/WX    TMP DP  RH WIND       PRES   REMARKS
DODGE CITY     SUNNY     63  24  22 VRB5      29.70F
ELKHART        SUNNY     77  31  18 S10       29.69F
GARDEN CITY    SUNNY    N/A N/A N/A CALM      29.68F
GREAT BEND     SUNNY     58  36  43 S10       29.71F
LIBERAL        SUNNY     70  23  17 S6        29.70F
PRATT          SUNNY     57  37  46 S10G16    29.71F
$$

KSZ066>073-081>083-090>101-202100-
SOUTHEAST KANSAS

CITY           SKY/WX    TMP DP  RH WIND       PRES   REMARKS
CHANUTE        PTSUNNY   58  47  66 S17G23    29.82F
COFFEYVILLE    MOSUNNY   64  48  56 S16G25    29.82F
HUTCHINSON     SUNNY     60  43  53 S17       29.73F
MEDICINE LODGE   N/A     58  39  49 S13       29.71F
NEWTON         SUNNY     58  43  57 S16       29.75F
PARSONS        MOSUNNY   61  48  62 S12G20    29.83F
WICHITA INTL   SUNNY     61  44  53 S21G26    29.74F
WICHITA JABRA  SUNNY     59  44  57 S14G20    29.75F
WICHITA MCCONL SUNNY     60  43  52 S15       29.75F
WINFIELD       SUNNY     62  45  53 S13       29.78F
$$

KSZ007>012-019>026-033>040-048>060-102>105-202100-
NORTHEAST KANSAS

CITY           SKY/WX    TMP DP  RH WIND       PRES   REMARKS
CONCORDIA      MOSUNNY   52  41  66 E7        29.75F
EMPORIA        PTSUNNY   54  43  66 S18       29.79F
LAWRENCE       CLOUDY    51  45  79 SE8       29.83F
MANHATTAN      CLOUDY    54  43  66 S10       29.78F
MARYSVILLE     CLOUDY    48  43  81 CALM      29.79F
OLATHE IND     CLOUDY    52  45  77 S9        29.84F
OLATHE EXE     CLOUDY    51  45  79 S13       29.84F
SALINA         SUNNY     59  44  57 S13       29.75F
TOPEKA BILLARD CLOUDY    51  45  79 S8        29.82F
TOPEKA FORBES  CLOUDY    52  45  77 S6        29.81F
$$




USA.gov is the U.S. government's official web portal to all federal, state and local government web resources and services.